Zurück zum Katalog

COSMOS 2251 DEB

AktivVLEO
NORAD 36000·DEBRIS·🇷🇺 Russia

Gestartet Jun 16, 1993 von Plesetsk Cosmodrome

Loading…

Nächste Überflüge (nächste 24 Stunden)

TLE

AlterndSource: Space-Track

Epoche: Sep 11, 2026, 08:19 UTC

1 36000U 93036AWS 26254.34712166  .00022920  00000-0  16180-2 0  9992
2 36000  73.9815 253.1274 0031577 295.5743  64.2183 15.04462493642516

Verfolge COSMOS 2251 DEB in Echtzeit mit AllMySat

Download on the App Store